Tracking 29892 objects as of 21-Nov-2024
HD Live streaming from Space Station
objects crossing your sky now

SL-3 R/B

Track SL-3 R/B now!
10-day predictions
SL-3 R/B is classified as:


NORAD ID: 13068
Int'l Code: 1982-013B
Perigee: 507.6 km
Apogee: 540.1 km
Inclination: 81.2 °
Period: 95.0 minutes
Semi major axis: 6894 km
RCS: 5.3655 m2 (large)
Launch date: February 19, 1982
Source: Commonwealth of Independent States (former USSR) (CIS)
Launch site: PLESETSK MISSILE AND SPACE COMPLEX (PKMTR)

Note: This is a ROCKET BODY
Your satellite tracking list
Your tracking list is empty




NASA's NSSDC Master Catalog

Two Line Element Set (TLE):
1 13068U 82013B   24326.14950196  .00006325  00000-0  32215-3 0  9996
2 13068  81.1775 353.6115 0023599 333.8852  26.1184 15.16399098332701
Source of the keplerian elements: AFSPC